Tracking 26258 objects as of 3-Oct-2022
HD Live streaming from Space Station
objects crossing your sky now

STARLINK-4526

Track STARLINK-4526 now!
10-day predictions
STARLINK-4526 is classified as:


NORAD ID: 53438
Int'l Code: 2022-097BC
Perigee: 354.5 km
Apogee: 359.3 km
Inclination: 53.2 °
Period: 91.5 minutes
Semi major axis: 6727 km
RCS: Unknown
Launch date: August 10, 2022
Source: United States (US)
Launch site: AIR FORCE EASTERN TEST RANGE (AFETR)
aabbcc
Your satellite tracking list
Your tracking list is empty




NASA's NSSDC Master Catalog

Two Line Element Set (TLE):
1 53438U 22097BC  22275.91667824  .00054968  00000-0  39349-3 0  9997
2 53438  53.2167 342.1659 0003550  12.4150 245.4240 15.73195543  1303
Source of the keplerian elements: AFSPC